Location: ???????
(55.4362°N, 38.1183°E)
Time: 02:26:54
(UTC+00:00)

METEOR M2 - Pass Details

Date: 30 November 2021
Orbit: 818 x 827 km, 98.4° (Epoch: 28 January)

Event Time Altitude Azimuth Distance (km) Brightness Sun altitude
Rises 17:20:41 0° 212° (SSW) 3,359 ? -35.3°
Reaches altitude 10° 17:23:46 10° 230° (SW) 2,431 ? -35.7°
Maximum altitude 17:27:27 19° 274° (W) 1,904 ? -36.2°
Drops below altitude 10° 17:31:10 10° 318° (NW) 2,440 ? -36.7°
Sets 17:34:17 0° 336° (NNW) 3,377 ? -37.1°
